When you browse on this site, cookies collect data to enhance your experience and personalize the content and advertising you see.
Visit our Privacy Policy to learn more. By continuing to use the site, you agree to this use of cookies and data.
  • en Suisse
  • Liste des pays
  • À 7 jours
  • Température de l'eau
  • Carte météo
  • Widgets météo
  • user-avatar
    Se connecter

    Météo par heure à Victoria

    Ce jour, 18 Octobre, Vendredi

    Heure Température Précipitation Vent Pression Humidité
    00:00 +7°C° 0 mm 1 m/s 751 mmHg 93%
    01:00 +6°C° 0 mm 1 m/s 751 mmHg 94%
    02:00 +6°C° 0 mm 1 m/s 751 mmHg 94%
    03:00 +5°C° 0 mm 1 m/s 750 mmHg 94%
    04:00 +5°C° 0 mm 1 m/s 750 mmHg 95%
    05:00 +6°C° 0 mm 1 m/s 751 mmHg 94%
    06:00 +7°C° 0 mm 1 m/s 751 mmHg 92%
    07:00 +8°C° 0 mm 1 m/s 751 mmHg 91%
    08:00 +9°C° 0 mm 2 m/s 751 mmHg 80%
    09:00 +11°C° 0 mm 3 m/s 751 mmHg 69%
    10:00 +14°C° 0 mm 3 m/s 751 mmHg 58%
    11:00 +15°C° 0 mm 4 m/s 750 mmHg 54%
    12:00 +17°C° 0 mm 5 m/s 749 mmHg 51%
    13:00 +19°C° 0 mm 5 m/s 748 mmHg 47%
    14:00 +20°C° 0 mm 5 m/s 748 mmHg 48%
    15:00 +21°C° 0 mm 5 m/s 747 mmHg 49%
    16:00 +21°C° 0 mm 4 m/s 747 mmHg 50%
    17:00 +19°C° 0 mm 4 m/s 746 mmHg 54%
    18:00 +17°C° 0 mm 4 m/s 746 mmHg 59%
    19:00 +14°C° 0 mm 3 m/s 746 mmHg 63%
    20:00 +12°C° 0 mm 3 m/s 747 mmHg 69%
    21:00 +11°C° 0 mm 3 m/s 748 mmHg 75%
    22:00 +10°C° 0 mm 3 m/s 748 mmHg 81%
    23:00 +9°C° 0 mm 3 m/s 749 mmHg 84%

    Demain, 19 Octobre, Samedi

    Heure Température Précipitation Vent Pression Humidité
    00:00 +8°C° 0 mm 3 m/s 749 mmHg 88%
    01:00 +7°C° 0 mm 2 m/s 749 mmHg 92%
    02:00 +6°C° 0 mm 2 m/s 749 mmHg 93%
    03:00 +5°C° 0 mm 2 m/s 749 mmHg 95%
    04:00 +5°C° 0 mm 2 m/s 748 mmHg 96%
    05:00 +5°C° 0 mm 2 m/s 749 mmHg 93%
    06:00 +6°C° 0 mm 2 m/s 749 mmHg 91%
    07:00 +7°C° 0 mm 3 m/s 750 mmHg 88%
    08:00 +7°C° 0.1 mm 4 m/s 750 mmHg 79%
    09:00 +10°C° 0.1 mm 4 m/s 751 mmHg 70%
    10:00 +10°C° 0.1 mm 5 m/s 751 mmHg 61%
    11:00 +12°C° 0.1 mm 5 m/s 751 mmHg 60%
    12:00 +11°C° 0.1 mm 6 m/s 751 mmHg 59%
    13:00 +13°C° 0.1 mm 6 m/s 751 mmHg 59%
    14:00 +13°C° 0.1 mm 6 m/s 751 mmHg 56%
    15:00 +13°C° 0.1 mm 6 m/s 751 mmHg 54%
    16:00 +13°C° 0.1 mm 6 m/s 750 mmHg 51%
    17:00 +12°C° 0 mm 5 m/s 751 mmHg 59%
    18:00 +10°C° 0 mm 4 m/s 752 mmHg 67%
    19:00 +9°C° 0 mm 3 m/s 753 mmHg 75%
    20:00 +8°C° 0 mm 3 m/s 753 mmHg 80%
    21:00 +7°C° 0 mm 3 m/s 754 mmHg 85%
    22:00 +6°C° 0 mm 2 m/s 754 mmHg 90%
    23:00 +5°C° 0 mm 2 m/s 754 mmHg 91%

    Après-demain, 20 Octobre, Dimanche

    Heure Température Précipitation Vent Pression Humidité
    00:00 +4°C° 0 mm 2 m/s 754 mmHg 92%
    01:00 +4°C° 0 mm 2 m/s 754 mmHg 94%
    02:00 +3°C° 0 mm 2 m/s 754 mmHg 94%
    03:00 +3°C° 0 mm 2 m/s 754 mmHg 94%
    04:00 +2°C° 0 mm 2 m/s 754 mmHg 95%
    05:00 +4°C° 0 mm 2 m/s 755 mmHg 92%
    06:00 +5°C° 0 mm 2 m/s 755 mmHg 89%
    07:00 +6°C° 0 mm 2 m/s 756 mmHg 87%
    08:00 +8°C° 0 mm 3 m/s 756 mmHg 78%
    09:00 +11°C° 0 mm 3 m/s 756 mmHg 69%
    10:00 +13°C° 0 mm 4 m/s 756 mmHg 61%
    11:00 +14°C° 0 mm 4 m/s 756 mmHg 60%
    12:00 +15°C° 0 mm 4 m/s 756 mmHg 58%
    13:00 +15°C° 0 mm 4 m/s 756 mmHg 57%
    14:00 +15°C° 0 mm 4 m/s 755 mmHg 57%
    15:00 +17°C° 0 mm 4 m/s 755 mmHg 57%
    16:00 +16°C° 0 mm 5 m/s 755 mmHg 57%
    17:00 +15°C° 0 mm 4 m/s 755 mmHg 62%
    18:00 +13°C° 0 mm 4 m/s 756 mmHg 67%
    19:00 +11°C° 0 mm 4 m/s 757 mmHg 72%
    20:00 +10°C° 0 mm 4 m/s 757 mmHg 76%
    21:00 +8°C° 0 mm 4 m/s 757 mmHg 80%
    22:00 +7°C° 0 mm 4 m/s 758 mmHg 84%
    23:00 +7°C° 0 mm 4 m/s 758 mmHg 87%

    21 Octobre, Lundi

    Heure Température Précipitation Vent Pression Humidité
    00:00 +6°C° 0 mm 4 m/s 758 mmHg 89%
    01:00 +6°C° 0 mm 4 m/s 757 mmHg 92%
    02:00 +5°C° 0 mm 3 m/s 757 mmHg 93%
    03:00 +5°C° 0 mm 3 m/s 757 mmHg 93%
    04:00 +4°C° 0 mm 3 m/s 757 mmHg 94%
    05:00 +6°C° 0 mm 2 m/s 758 mmHg 91%
    06:00 +7°C° 0 mm 2 m/s 758 mmHg 87%
    07:00 +8°C° 0 mm 2 m/s 758 mmHg 84%
    08:00 +12°C° 0 mm 1 m/s 758 mmHg 76%
    09:00 +15°C° 0 mm 1 m/s 758 mmHg 68%
    10:00 +18°C° 0 mm 1 m/s 758 mmHg 60%
    11:00 +20°C° 0 mm 1 m/s 757 mmHg 56%
    12:00 +21°C° 0 mm 1 m/s 757 mmHg 51%
    13:00 +21°C° 0 mm 2 m/s 757 mmHg 47%
    14:00 +23°C° 0 mm 2 m/s 756 mmHg 49%
    15:00 +22°C° 0 mm 3 m/s 756 mmHg 50%
    16:00 +22°C° 0 mm 3 m/s 755 mmHg 51%
    17:00 +20°C° 0 mm 3 m/s 756 mmHg 58%
    18:00 +17°C° 0 mm 3 m/s 756 mmHg 65%
    19:00 +14°C° 0 mm 3 m/s 756 mmHg 72%
    20:00 +13°C° 0 mm 3 m/s 757 mmHg 73%
    21:00 +11°C° 0 mm 3 m/s 757 mmHg 74%
    22:00 +10°C° 0 mm 3 m/s 757 mmHg 75%
    23:00 +9°C° 0 mm 3 m/s 757 mmHg 79%

    22 Octobre, Mardi

    Heure Température Précipitation Vent Pression Humidité
    00:00 +9°C° 0 mm 2 m/s 756 mmHg 83%
    01:00 +8°C° 0 mm 2 m/s 756 mmHg 86%
    02:00 +8°C° 0 mm 2 m/s 756 mmHg 86%
    03:00 +8°C° 0 mm 2 m/s 756 mmHg 86%
    04:00 +8°C° 0 mm 1 m/s 756 mmHg 86%
    05:00 +10°C° 0 mm 1 m/s 756 mmHg 83%
    06:00 +11°C° 0 mm 1 m/s 756 mmHg 81%
    07:00 +12°C° 0 mm 1 m/s 757 mmHg 78%
    08:00 +15°C° 0 mm 1 m/s 757 mmHg 72%
    09:00 +18°C° 0 mm 1 m/s 756 mmHg 66%
    10:00 +21°C° 0 mm 1 m/s 756 mmHg 60%
    11:00 +22°C° 0 mm 1 m/s 756 mmHg 55%
    12:00 +24°C° 0 mm 1 m/s 756 mmHg 50%
    13:00 +25°C° 0 mm 1 m/s 755 mmHg 46%
    14:00 +25°C° 0 mm 1 m/s 755 mmHg 45%
    15:00 +25°C° 0 mm 1 m/s 754 mmHg 45%
    16:00 +25°C° 0 mm 1 m/s 753 mmHg 45%
    17:00 +23°C° 0 mm 1 m/s 754 mmHg 51%
    18:00 +20°C° 0 mm 1 m/s 754 mmHg 58%
    19:00 +18°C° 0 mm 1 m/s 754 mmHg 64%
    20:00 +16°C° 0 mm 2 m/s 755 mmHg 65%
    21:00 +15°C° 0 mm 2 m/s 755 mmHg 65%
    22:00 +15°C° 0 mm 2 m/s 755 mmHg 66%
    23:00 +14°C° 0 mm 2 m/s 755 mmHg 70%

    23 Octobre, Mercredi

    Heure Température Précipitation Vent Pression Humidité
    00:00 +13°C° 0 mm 1 m/s 754 mmHg 73%
    01:00 +12°C° 0 mm 1 m/s 754 mmHg 77%
    02:00 +12°C° 0 mm 1 m/s 754 mmHg 79%
    03:00 +11°C° 0 mm 1 m/s 754 mmHg 81%
    04:00 +11°C° 0 mm 1 m/s 754 mmHg 84%
    05:00 +12°C° 0 mm 1 m/s 754 mmHg 81%
    06:00 +13°C° 0 mm 1 m/s 754 mmHg 78%
    07:00 +14°C° 0 mm 1 m/s 754 mmHg 76%
    08:00 +17°C° 0 mm 2 m/s 754 mmHg 68%
    09:00 +19°C° 0 mm 2 m/s 754 mmHg 60%
    10:00 +23°C° 0 mm 2 m/s 754 mmHg 52%
    11:00 +25°C° 0 mm 1 m/s 754 mmHg 49%
    12:00 +26°C° 0 mm 1 m/s 753 mmHg 45%
    13:00 +28°C° 0 mm 1 m/s 753 mmHg 41%
    14:00 +28°C° 0 mm 1 m/s 752 mmHg 41%
    15:00 +28°C° 0 mm 1 m/s 751 mmHg 40%
    16:00 +28°C° 0 mm 2 m/s 751 mmHg 39%
    17:00 +25°C° 0 mm 2 m/s 751 mmHg 45%
    18:00 +23°C° 0 mm 2 m/s 751 mmHg 51%
    19:00 +19°C° 0 mm 3 m/s 751 mmHg 57%
    20:00 +18°C° 0 mm 3 m/s 751 mmHg 58%
    21:00 +17°C° 0 mm 3 m/s 751 mmHg 58%
    22:00 +17°C° 0 mm 3 m/s 751 mmHg 58%
    23:00 +16°C° 0 mm 3 m/s 751 mmHg 59%
    Voir plus